CZ-6A DEB

Satellite information

Favourite Embed

Satellite Type and Status

DEBRISIN ORBIT

Key statistics

Satellite CZ-6A DEB at a glance.

Uptime

335

Days in orbit

Revolutions

≈ 14.2

Per day

Orbit

LEO

Low Earth Orbit

Inclination

89.0

Latest

Satellite identification and parameters

Extended collection of information and parameters for CZ-6A DEB.

Object identification

Identified? True

Debris? True

Object name: CZ-6A DEB

International designator: 2024-140UW

Object number (NORAD): 61333

Object ID (CCSDS): 61333

Country: PEOPLES REPUBLIC OF CHINA (PRC)

Current information (Y/N): Y

RCS size: SMALL

Orbital parameters

Period: 101.54 minutes

Inclination: 89.0213 deg

SMA: 7209.705 km

Apoapsis: 867.412 km

Periapsis: 795.728 km

RAAN: 314.3713 deg

Eccentricy: 0.0049714

Argument of periapsis: 227.0245 deg

Mean anomaly: 132.6772 deg

Mean motion: 14.18164237 rev/day

Mean motion (dot): 0.0000054 rev/day2

B* drag term: 0.0002533 1/REarth

Two-line elements (TLE)

Creation date: July 6, 2025, 10:56 p.m.

Reference frame: TEME

Reference center: EARTH

Epoch: July 6, 2025, 8:40 p.m. UTC

TLE line 0: 0 CZ-6A DEB

TLE line 1: 1 61333U 24140UW 25187.86117343 .00000540 00000-0 25330-3 0 9998

TLE line 2: 2 61333 89.0213 314.3713 0049714 227.0245 132.6772 14.18164237 43462

Live tracking on map

Real-time ground track for satellite CZ-6A DEB.

In-orbit conjunctions

A list of the most updated potential collisions computed for object CZ-6A DEB.

Target Orbit TCA Probability of collision Miss distance Type
FENGYUN 1C DEB SSO 2025-01-12 23:28:43 0.0001521337 649.0 (m) DEBRIS
FENGYUN 1C DEB SSO 2024-11-05 15:47:45 0.0001573357 987.0 (m) DEBRIS
BLITS SSO 2024-10-23 09:17:38 0.0001481581 534.0 (m) PAYLOAD
FENGYUN 1C DEB SSO 2024-10-11 22:02:39 0.0001336547 956.0 (m) DEBRIS

Associated space launch

18 Low Earth Orbit communication satellites with Ku, Q and V band payloads for the G60 constellation operated by Shanghai Spacecom Satellite Technology (SSST) with funding backed by the Shanghai local government. Initial constellation will consist of 1296 satellites by 2027 with long term plans to expand it to 12000 satellites.

CZ-6A DEB was lifted into orbit during the mission ‘Long March 6A | G60 Polar Group 01’, on board a Long March 6A space rocket.

The launch took place on Aug. 6, 2024, 6:42 a.m. from Launch Complex 9A.

For more information about the launch, click the button.

Launch to space Long March 6A | G60 Polar Group 01
Long March 6A | G60 Polar Group 01

Agency: N/A

Status: Launch Successful

Launch date: Aug. 6, 2024, 6:42 a.m. UTC

Rocket: Long March 6A

Launch pad: Launch Complex 9A

Location: Taiyuan Satellite Launch Center, People's Republic of China

...

Latest news about this satellite

News about space launch
Brightness of first Chinese broadband constellation satellites alarms astronomers

The first satellites of a Chinese broadband constellation are significantly brighter than those of Western systems, posing a new challenge for astronomers.

News about space launch
Chinese rocket stage breaks up into cloud of more than 700 pieces of space debris

HELSINKI — A Chinese Long March 6A rocket’s upper stage has fragmented into a cloud of over 700 pieces of space debris, adding to concerns about long-term orbital safety. China […]

News about space launch
China's Thousand Sails Megaconstellation Kicks Off with Dangerous Debris Field

China's Thousand Sails Megaconstellation Kicks Off with Dangerous Debris Field


Newsletter sign-up

Weekly statistics, charts and insights to help you stay on top of the space industry.